QPF
0.04 0.01 0.00 0.00 0.00 0.00 0.00 0.00 0.00 0.00 0.00 0.00 0.00 0.00 0.00 0.00 0.00 0.00 0.00 0.00 0.00 0.00
0.00 0.00 0.00 0.00 0.00 0.00 0.00 0.00 0.00 0.00 0.00 0.00 0.00 0.00 0.00 0.00 0.00 0.00 0.00 0.00 0.00 0.00
0.01 0.00 0.00 0.00 0.00 0.00 0.00 0.00 0.00 0.00 0.00 0.00 0.00 0.00 0.00 0.00 0.00 0.00 0.00 0.00 0.00 0.00
0.00 0.00 0.00 0.00 0.00 0.00 0.00 0.00 0.00 0.00 0.00 0.00 0.00 0.00 0.00 0.00 0.00 0.00 0.00 0.00 0.00 0.00
0.00 0.00 0.00 0.00 0.00 0.00 0.00 0.00 0.00 0.00 0.00 0.00 0.00 0.00 0.00 0.00 0.00 0.00 0.00 0.00 0.00 0.00
0.00 0.00 0.00 0.00 0.00 0.01 0.00 0.00 0.00 0.00 0.00 0.00 0.00 0.00 0.00 0.00 0.00 0.00 0.00 0.00 0.00 0.00
0.00 0.00 0.00 0.00 0.02 0.02 0.00 0.00 0.00 0.00 0.00 0.00 0.00 0.00 0.00 0.00 0.00 0.00 0.00 0.00 0.00 0.00
0.00 0.00 0.00 0.00 0.01 0.03 0.02 0.00 0.00 0.00 0.00 0.00 0.00 0.00 0.00 0.00 0.00 0.00 0.00 0.00 0.00 0.00
0.01 0.06 0.03 0.02 0.05 0.03 0.00 0.00 0.00 0.00 0.00 0.00 0.00 0.00 0.00 0.00 0.00 0.00 0.00 0.00 0.00 0.00
0.06 0.08 0.09 0.10 0.03 0.00 0.00 0.00 0.00 0.00 0.00 0.00 0.00 0.00 0.00 0.00 0.00 0.00 0.00 0.00 0.00 0.00
0.04 0.04 0.10 0.07 0.01 0.00 0.00 0.00 0.00 0.00 0.00 0.00 0.00 0.00 0.00 0.00 0.00 0.00 0.00 0.00 0.00 0.00
0.00 0.04 0.08 0.02 0.00 0.00 0.00 0.00 0.00 0.00 0.00 0.00 0.00 0.00 0.00 0.00 0.00 0.00 0.00 0.00 0.00 0.00
0.04 0.10 0.02 0.00 0.00 0.00 0.00 0.00 0.00 0.00 0.00 0.00 0.00 0.00 0.00 0.00 0.00 0.00 0.00 0.00 0.00 0.00
0.04 0.01 0.00 0.00 0.00 0.00 0.00 0.00 0.00 0.00 0.00 0.00 0.00 0.00 0.00 0.00 0.00 0.00 0.00 0.00 0.00 0.00
MSLP
1013.59 1014.18 1014.55 1014.82 1015.20 1015.37 1015.50 1015.71 1015.89 1016.01 1015.98 1015.84 1015.77 1015.82 1015.87 1015.89 1015.83 1015.70 1015.49 1015.15 1014.70 1014.11
1013.69 1014.02 1014.45 1014.83 1015.14 1015.42 1015.60 1015.72 1015.79 1015.84 1016.00 1015.98 1015.88 1016.06 1016.15 1016.12 1016.12 1015.94 1015.65 1015.37 1014.92 1014.46
1013.39 1013.81 1014.28 1014.82 1015.28 1015.44 1015.57 1015.67 1015.86 1016.02 1016.11 1016.10 1016.03 1016.14 1016.24 1016.19 1016.12 1015.99 1015.86 1015.59 1015.21 1014.76
1013.56 1013.89 1014.27 1014.86 1015.24 1015.38 1015.60 1015.75 1015.95 1016.12 1016.19 1016.13 1016.08 1016.24 1016.35 1016.24 1016.16 1016.15 1016.09 1015.88 1015.54 1015.14
1013.44 1014.19 1014.77 1014.92 1015.04 1015.33 1015.55 1015.91 1016.11 1016.15 1016.25 1016.27 1016.24 1016.37 1016.38 1016.43 1016.48 1016.47 1016.35 1016.20 1015.84 1015.54
1013.73 1014.38 1014.89 1015.14 1015.27 1015.44 1015.83 1016.22 1016.45 1016.63 1016.76 1016.85 1016.80 1016.70 1016.74 1016.85 1016.95 1016.91 1016.80 1016.61 1016.34 1016.10
1013.73 1014.47 1014.69 1014.93 1015.53 1015.98 1016.14 1016.38 1016.75 1017.09 1017.28 1017.34 1017.44 1017.39 1017.32 1017.33 1017.41 1017.48 1017.28 1016.98 1016.70 1016.41
1013.81 1014.23 1014.79 1015.11 1015.55 1016.37 1016.64 1017.06 1017.34 1017.58 1017.74 1017.80 1017.77 1017.86 1017.78 1017.78 1017.90 1018.00 1017.86 1017.56 1017.13 1016.65
1013.11 1013.94 1014.88 1015.48 1015.98 1016.90 1017.27 1017.59 1017.90 1018.19 1018.23 1018.31 1018.29 1018.25 1018.06 1018.16 1018.12 1018.14 1018.09 1017.89 1017.52 1017.02
1013.67 1014.48 1015.29 1015.90 1016.47 1017.17 1017.68 1018.03 1018.48 1018.78 1018.78 1018.80 1018.86 1018.75 1018.38 1018.42 1018.53 1018.33 1018.18 1018.12 1017.80 1017.28
1014.09 1014.82 1015.53 1016.33 1016.87 1017.58 1018.11 1018.59 1018.82 1019.12 1019.23 1019.20 1019.16 1019.11 1018.92 1018.77 1018.68 1018.73 1018.65 1018.50 1018.29 1018.14
1014.26 1015.14 1016.06 1016.43 1016.91 1017.82 1018.11 1018.84 1018.99 1019.33 1019.45 1019.32 1019.42 1019.36 1019.50 1019.40 1019.37 1019.17 1019.05 1018.83 1018.56 1018.40
1014.47 1015.12 1015.77 1016.08 1016.89 1017.63 1018.20 1018.71 1019.04 1019.37 1019.39 1019.25 1019.36 1019.61 1019.76 1019.83 1019.83 1019.51 1019.31 1019.09 1018.92 1018.81
1014.75 1015.12 1015.65 1016.51 1017.19 1017.94 1018.57 1018.98 1019.42 1019.71 1019.79 1019.62 1019.87 1019.95 1020.06 1020.14 1020.00 1019.93 1019.76 1019.51 1019.13 1018.96
Thickness
5774 5767 5763 5759 5754 5752 5749 5747 5745 5743 5742 5743 5743 5742 5742 5742 5743 5742 5742 5744 5747 5750
5771 5767 5762 5758 5753 5748 5745 5743 5743 5741 5740 5740 5739 5737 5737 5737 5737 5737 5739 5741 5742 5744
5771 5767 5761 5755 5749 5745 5742 5741 5740 5738 5738 5737 5737 5734 5733 5734 5734 5734 5734 5735 5736 5738
5766 5764 5760 5753 5748 5744 5741 5738 5736 5735 5733 5732 5732 5730 5729 5730 5730 5728 5726 5727 5729 5731
5765 5758 5751 5749 5747 5743 5739 5734 5729 5729 5727 5727 5727 5726 5725 5723 5723 5722 5721 5720 5721 5722
5757 5750 5744 5741 5740 5739 5734 5729 5724 5721 5718 5716 5716 5716 5714 5713 5712 5713 5713 5713 5712 5711
5750 5744 5743 5742 5733 5728 5727 5723 5718 5713 5710 5708 5707 5705 5704 5702 5701 5700 5701 5704 5705 5705
5743 5742 5739 5737 5730 5720 5716 5712 5708 5703 5699 5699 5699 5697 5696 5694 5692 5689 5689 5690 5692 5694
5747 5743 5733 5727 5722 5712 5709 5705 5698 5693 5690 5688 5688 5688 5688 5685 5684 5682 5680 5680 5681 5684
5739 5726 5723 5718 5713 5706 5702 5697 5690 5684 5683 5681 5678 5677 5680 5677 5674 5674 5673 5671 5671 5674
5730 5723 5718 5710 5706 5700 5694 5687 5685 5680 5675 5672 5671 5668 5667 5667 5665 5662 5662 5661 5660 5659
5724 5716 5708 5705 5701 5693 5688 5678 5677 5670 5666 5665 5662 5659 5655 5653 5652 5652 5650 5649 5648 5647
5717 5711 5708 5706 5698 5690 5682 5675 5670 5665 5662 5661 5656 5651 5647 5642 5639 5640 5639 5636 5634 5631
5712 5710 5706 5697 5689 5681 5673 5667 5661 5656 5652 5651 5645 5641 5637 5632 5630 5627 5624 5622 5622 5619